Location: El Águila
(10.4167°N, 66.7167°W)
Time: 23:41:44
(UTC+00:00)

SWIFT - Pass Details

Date: 02 April 2023
Orbit: 527 x 541 km, 20.6° (Epoch: 28 May)

Event Time Altitude Azimuth Distance (km) Brightness Sun altitude
Rises 22:53:06 0° 256° (WSW) 2,639 7.4 -4.6°
Reaches altitude 10° 22:55:22 10° 259° (WSW) 1,751 6.4 -5.2°
Maximum altitude 22:59:24 68° 342° (NNW) 562 2.5 -6.2°
Drops below altitude 10° 23:03:27 10° 66° (ENE) 1,754 4.4 -7.2°
Enters shadow 23:04:19 - 67° (ENE) 2,091 4.7 -7.4°
